Location: Skalnate Pleso
(49.1889°N, 20.2450°E)
Time: 11:34:08
(UTC+02:00)

Cosmos 1605 Rocket - Pass Details

Date: 01 March 2020
Orbit: 944 x 1007 km, 82.9° (Epoch: 07 April)

Event Time Altitude Azimuth Distance (km) Brightness Sun altitude
Rises 01:46:27 0° 354° (N) 3,668 7.5 -41.8°
Reaches altitude 10° 01:49:10 10° 2° (N) 2,708 6.8 -41.5°
Enters shadow 01:52:17 27° 23° (NNE) 1,756 5.7 -41.2°
